Wind_Speed
88 93 97 99 98 94 89 84 80 76 74 73 73 75 76 79 83 88 94 98 100 101 100 98 96 94 92 90 86 82 79 75 73 71 68 65 62 59 56 53 51 50 49
91 95 96 94 89 83 78 73 69 67 67 67 67 68 70 72 74 78 84 90 96 100 102 102 102 100 97 95 92 88 84 80 77 75 72 69 66 63 60 56 54 52 50
92 95 92 87 80 75 71 68 67 67 67 66 67 67 68 69 71 74 78 83 89 95 101 104 105 105 103 100 97 94 90 86 82 79 76 74 70 67 64 60 57 54 53
93 91 85 79 73 70 69 68 68 67 67 68 68 68 68 68 69 71 74 78 84 90 96 102 106 107 107 105 102 99 95 91 87 83 80 77 75 71 67 64 61 57 55
90 85 79 73 70 69 69 68 68 68 69 69 69 69 69 68 68 70 73 76 80 85 92 99 105 108 110 109 107 104 100 96 92 88 84 81 79 75 72 68 65 61 57
86 80 74 70 69 68 68 68 68 69 70 71 70 69 67 65 66 67 70 74 78 82 88 96 102 107 111 112 112 109 105 101 97 93 89 85 82 79 76 72 68 65 61
82 76 71 69 68 67 67 67 68 69 69 69 68 65 61 60 61 63 66 69 74 80 85 92 99 105 110 113 114 113 110 106 102 98 94 90 86 83 80 76 72 68 65
78 72 69 68 67 67 67 67 68 69 67 65 64 61 56 51 54 58 62 65 71 77 82 87 94 102 109 114 116 116 114 111 106 102 98 94 90 87 83 80 76 72 69
75 70 68 67 67 66 67 67 69 68 65 60 57 55 52 46 44 49 56 62 67 72 77 82 88 96 105 112 116 118 117 115 111 107 102 98 94 90 87 84 80 76 72
72 69 68 67 66 66 66 67 68 66 62 57 52 48 45 41 36 37 47 56 62 67 72 76 82 89 98 107 114 118 119 118 115 111 106 102 98 94 90 87 84 80 75
70 68 67 67 66 65 66 67 66 63 58 54 50 45 39 35 31 29 36 48 56 62 67 71 75 81 90 101 110 116 120 120 118 115 111 106 102 98 94 91 87 83 79
69 67 66 66 66 65 66 66 65 60 55 50 46 42 37 32 26 23 27 38 49 56 62 65 69 74 82 92 103 112 119 121 121 118 114 109 105 101 97 93 90 86 82
67 66 66 66 65 64 65 65 63 58 52 48 43 39 34 29 23 18 19 28 40 50 56 60 64 68 75 84 94 105 114 120 121 120 117 113 108 104 100 96 92 89 85
67 66 65 65 64 64 64 64 61 56 51 46 41 36 31 26 20 14 13 21 32 43 50 55 59 62 67 75 84 95 106 115 120 121 119 116 111 108 103 99 95 91 87
67 65 65 64 64 63 62 63 60 55 50 44 39 34 29 24 18 12 10 15 25 35 44 50 54 56 60 66 75 85 96 107 116 120 121 118 114 111 107 102 98 94 90
66 65 64 64 63 62 61 61 58 54 49 43 38 32 27 22 16 10 8 12 20 29 37 45 48 51 54 58 66 75 85 98 109 117 120 120 117 113 109 105 101 97 93
66 64 64 63 63 61 60 59 57 53 48 43 37 32 25 20 14 9 7 9 16 24 32 39 43 45 48 52 58 66 76 87 100 110 118 119 118 115 112 108 104 100 95
65 64 63 63 62 61 59 58 56 52 48 43 38 32 25 18 13 10 7 8 13 20 27 33 37 40 43 46 52 58 67 78 90 102 112 117 118 116 114 110 106 102 98
64 63 63 62 61 60 58 57 55 52 48 43 38 32 26 19 13 9 7 8 11 17 23 28 32 36 38 41 45 52 60 70 82 93 104 113 117 117 115 112 109 105 101
64 63 62 61 61 59 57 56 54 52 49 44 40 33 27 20 14 10 8 8 11 15 20 25 29 32 34 37 40 46 54 63 74 85 96 107 114 116 115 113 110 107 103
63 62 61 61 60 58 57 55 53 52 49 46 41 35 28 22 16 11 9 9 11 15 19 22 26 29 31 33 36 41 49 57 67 78 89 100 109 113 114 114 112 109 105
62 61 61 60 59 58 56 54 53 52 49 46 42 36 29 23 18 13 10 10 11 14 18 21 23 26 28 30 32 37 44 52 61 72 82 92 103 109 112 113 112 109 106
62 60 60 59 58 57 55 53 52 51 49 46 42 38 31 24 19 14 11 10 10 13 16 19 22 24 26 28 30 34 41 48 56 65 75 84 96 103 108 111 111 110 107
61 59 59 58 57 56 54 52 51 50 48 46 43 39 33 25 20 15 11 8 9 11 14 17 20 22 24 26 28 32 37 44 51 59 69 77 89 97 103 107 109 109 108
61 59 58 57 55 54 54 52 50 49 48 46 43 40 34 27 20 15 11 8 7 9 12 15 18 20 22 24 27 30 35 42 49 56 64 72 81 90 98 102 105 107 107
61 58 57 57 55 54 53 52 50 48 47 46 43 41 36 30 23 16 12 8 6 7 10 13 16 18 20 23 26 29 33 40 46 52 59 67 74 84 91 97 100 103 104
Wind_Direction
310 308 306 305 303 301 299 296 294 290 286 282 278 274 269 265 260 256 253 249 245 241 237 235 233 232 231 230 229 228 227 226 225 225 224 223 223 222 222 222 222 221 220
312 310 309 308 306 304 303 301 297 294 290 286 281 277 271 266 260 255 250 247 243 240 236 234 231 230 229 228 227 227 226 225 224 223 223 222 221 221 221 221 221 221 220
315 313 313 312 310 309 307 304 302 299 295 290 286 280 275 269 263 256 250 245 241 238 235 232 230 228 227 226 226 225 224 224 223 222 221 221 220 220 220 220 220 220 220
318 318 317 315 314 312 310 308 305 302 298 294 289 284 278 271 264 258 251 245 240 235 232 230 228 226 225 224 224 224 223 222 221 221 220 219 219 219 219 219 219 219 219
321 321 320 318 317 315 313 311 308 305 302 297 292 286 280 273 266 258 251 245 240 235 231 228 226 224 223 222 222 222 221 221 220 220 219 218 217 217 218 218 218 218 218
324 324 323 321 320 318 316 313 311 308 305 301 296 290 282 274 266 259 251 245 239 235 230 226 224 222 221 220 220 220 220 219 219 218 218 217 216 216 216 217 217 217 218
327 326 325 324 323 321 319 317 315 313 309 305 300 293 284 276 267 258 250 243 238 234 230 226 222 220 219 218 218 218 218 218 218 217 217 216 215 214 215 215 216 216 217
330 329 328 327 326 325 323 321 319 318 315 311 307 300 291 278 265 256 247 240 235 232 229 225 222 219 218 217 216 216 217 217 216 216 216 215 214 214 213 214 214 215 216
332 332 331 330 329 328 327 326 325 323 321 318 315 310 302 289 269 253 244 237 233 230 228 225 222 219 217 216 215 215 215 215 215 215 215 214 214 213 212 212 213 214 215
335 334 333 333 332 331 331 330 330 328 326 325 322 318 311 302 284 256 240 234 230 227 225 224 222 219 217 216 214 213 213 213 214 214 214 213 213 212 212 211 212 213 214
337 336 336 335 335 335 334 335 334 333 331 329 328 326 321 311 295 268 242 231 227 224 223 222 221 219 218 217 215 213 212 212 212 212 213 212 212 212 211 210 210 211 213
339 339 338 338 338 338 338 338 338 337 335 334 333 332 329 323 307 278 247 230 224 222 221 220 220 219 219 217 215 213 212 211 211 211 211 211 211 211 211 210 210 210 211
341 341 341 341 341 341 341 342 341 341 339 338 337 335 333 329 319 293 253 230 222 220 219 218 219 219 219 218 216 214 212 211 210 210 210 210 210 211 210 210 209 210 210
344 343 343 343 343 343 344 345 345 344 343 342 341 340 338 333 325 303 260 231 221 217 217 217 218 219 219 218 217 215 213 211 210 209 209 209 209 210 210 209 209 209 210
345 346 346 346 346 346 346 347 348 347 347 345 345 344 343 339 330 310 267 231 220 216 215 216 217 218 219 219 218 217 215 213 210 209 208 208 208 209 209 209 209 209 209
347 348 348 348 348 348 349 350 350 350 349 348 348 346 345 342 335 317 276 235 220 216 214 215 216 218 219 219 219 218 216 214 212 209 208 207 207 208 208 208 208 208 208
349 349 349 350 350 350 351 352 352 352 352 351 350 348 346 342 336 321 284 239 221 215 213 214 216 217 218 219 219 218 217 215 213 210 209 207 207 207 207 207 208 208 208
351 351 351 351 352 352 353 354 354 354 354 353 352 349 346 342 335 322 292 248 225 215 212 214 216 218 218 219 219 218 217 215 213 211 209 207 206 206 206 207 207 207 207
352 352 352 353 353 354 354 355 356 356 356 355 354 351 347 338 330 315 292 254 229 218 213 214 216 218 219 219 219 218 217 215 213 212 210 208 206 206 206 206 207 207 207
353 353 353 354 354 355 356 357 357 358 358 357 356 353 349 341 326 311 289 259 234 222 216 215 217 219 219 219 219 218 217 214 213 212 211 209 207 206 205 206 206 207 207
354 354 354 355 355 356 356 357 358 359 359 359 357 355 351 345 332 311 291 266 242 227 220 218 218 219 219 219 219 217 215 214 212 211 210 209 207 206 205 205 206 207 207
355 355 355 355 356 357 357 358 359 0 360 359 358 356 353 348 340 321 295 273 250 232 223 220 219 218 218 218 217 215 213 212 211 210 210 209 208 206 205 205 206 206 207
356 356 356 356 357 358 358 358 359 0 0 0 359 358 354 350 345 333 308 281 256 236 225 220 218 218 217 217 215 212 210 209 208 208 208 208 208 206 205 205 206 206 207
356 356 357 357 357 358 359 359 360 0 1 1 1 360 358 353 348 342 324 294 260 238 226 220 218 217 217 215 212 209 207 205 205 206 206 207 207 206 206 205 206 207 208
357 357 357 358 358 358 359 360 1 1 1 2 1 1 1 358 352 346 336 313 270 240 227 221 217 215 215 213 208 206 204 202 201 202 203 204 206 206 206 205 206 207 208
357 357 358 358 359 359 360 0 1 2 2 3 3 3 2 1 357 351 342 323 287 246 230 222 217 215 213 210 205 203 201 199 199 199 200 201 203 205 205 205 206 208 209
Height
5688 5672 5654 5637 5620 5605 5592 5581 5573 5566 5559 5555 5551 5549 5549 5551 5556 5562 5572 5584 5598 5613 5627 5641 5654 5667 5679 5691 5703 5715 5726 5737 5748 5758 5768 5778 5787 5794 5802 5808 5815 5822 5828
5666 5648 5629 5611 5595 5580 5568 5558 5549 5542 5536 5531 5527 5524 5523 5523 5526 5531 5538 5549 5562 5577 5592 5608 5624 5639 5653 5667 5680 5694 5706 5718 5730 5741 5752 5763 5773 5782 5791 5798 5805 5812 5819
5644 5624 5605 5588 5572 5559 5548 5538 5529 5521 5514 5508 5503 5499 5496 5496 5498 5501 5507 5516 5527 5541 5557 5574 5591 5608 5625 5641 5656 5670 5685 5698 5711 5723 5736 5748 5759 5769 5779 5787 5795 5803 5810
5622 5602 5584 5567 5553 5541 5529 5519 5509 5500 5492 5484 5478 5473 5469 5468 5469 5472 5477 5484 5494 5507 5522 5540 5558 5576 5595 5614 5630 5647 5662 5677 5691 5705 5718 5731 5743 5755 5766 5775 5784 5792 5800
5602 5583 5565 5550 5537 5525 5512 5500 5490 5479 5469 5460 5452 5447 5442 5439 5439 5442 5446 5454 5464 5476 5490 5506 5524 5544 5565 5585 5603 5621 5638 5655 5670 5685 5699 5713 5727 5740 5752 5763 5773 5781 5790
5585 5566 5550 5535 5522 5509 5496 5483 5471 5460 5447 5434 5425 5418 5413 5410 5409 5411 5416 5424 5435 5446 5459 5473 5492 5513 5534 5554 5575 5594 5613 5631 5648 5664 5680 5695 5709 5723 5737 5749 5760 5770 5779
5569 5551 5536 5522 5508 5494 5480 5466 5453 5440 5426 5410 5398 5389 5385 5381 5379 5380 5386 5396 5406 5415 5428 5444 5463 5482 5503 5525 5546 5567 5587 5607 5625 5642 5659 5676 5691 5706 5721 5734 5746 5757 5767
5555 5538 5523 5508 5494 5480 5465 5450 5435 5420 5405 5389 5373 5361 5356 5357 5353 5354 5359 5368 5377 5388 5403 5419 5437 5456 5475 5496 5518 5540 5561 5582 5602 5621 5639 5656 5673 5689 5704 5719 5732 5744 5755
5542 5526 5511 5496 5481 5466 5451 5435 5419 5401 5386 5372 5356 5342 5331 5327 5328 5331 5335 5343 5353 5366 5380 5396 5413 5429 5448 5469 5490 5513 5535 5557 5578 5598 5618 5637 5654 5671 5687 5702 5717 5730 5742
5531 5515 5500 5484 5469 5454 5438 5422 5404 5386 5369 5356 5344 5331 5319 5310 5307 5310 5316 5322 5333 5346 5360 5375 5391 5408 5426 5444 5463 5485 5508 5531 5554 5575 5596 5616 5634 5652 5669 5686 5701 5716 5729
5521 5505 5490 5474 5459 5443 5427 5410 5392 5375 5359 5344 5332 5320 5310 5302 5296 5295 5300 5307 5317 5329 5343 5357 5373 5388 5403 5419 5438 5459 5482 5506 5529 5552 5574 5595 5615 5633 5651 5669 5686 5701 5715
5513 5497 5481 5465 5449 5434 5417 5400 5383 5366 5351 5337 5324 5313 5303 5295 5289 5287 5290 5296 5305 5316 5329 5343 5356 5369 5382 5396 5414 5435 5457 5482 5505 5529 5552 5574 5596 5616 5634 5653 5670 5686 5701
5506 5490 5473 5458 5442 5426 5409 5392 5375 5359 5344 5331 5319 5308 5299 5291 5285 5283 5284 5288 5295 5305 5317 5330 5341 5353 5366 5380 5397 5415 5437 5459 5483 5506 5530 5554 5577 5598 5618 5637 5655 5672 5687
5498 5482 5467 5451 5434 5418 5402 5386 5369 5353 5340 5327 5315 5305 5296 5289 5283 5281 5281 5284 5289 5298 5308 5319 5330 5342 5354 5368 5383 5399 5418 5438 5461 5485 5510 5534 5557 5579 5601 5621 5639 5657 5674
5492 5476 5460 5445 5429 5413 5397 5381 5365 5350 5336 5324 5313 5303 5295 5288 5283 5281 5281 5282 5286 5293 5302 5312 5323 5333 5345 5357 5370 5385 5401 5420 5442 5465 5490 5514 5538 5561 5583 5604 5623 5642 5659
5486 5470 5455 5440 5424 5409 5393 5378 5362 5347 5334 5322 5312 5303 5295 5289 5284 5282 5281 5282 5285 5290 5298 5306 5316 5326 5337 5348 5359 5372 5387 5404 5424 5447 5471 5495 5519 5542 5565 5587 5607 5626 5645
5481 5466 5451 5436 5421 5405 5390 5375 5360 5346 5334 5322 5311 5303 5296 5290 5286 5284 5283 5283 5285 5289 5295 5303 5312 5321 5331 5340 5350 5362 5375 5390 5409 5429 5452 5476 5500 5524 5547 5570 5591 5611 5630
5477 5462 5447 5432 5417 5402 5388 5373 5359 5346 5333 5322 5312 5303 5296 5291 5287 5285 5284 5284 5286 5289 5294 5301 5308 5316 5325 5333 5342 5352 5364 5378 5395 5414 5435 5459 5483 5507 5531 5554 5575 5596 5615
5473 5459 5444 5430 5415 5401 5386 5372 5359 5346 5333 5322 5312 5304 5297 5292 5288 5286 5284 5285 5286 5289 5293 5298 5304 5311 5319 5327 5336 5345 5355 5368 5383 5401 5420 5443 5467 5491 5514 5538 5559 5581 5601
5471 5456 5442 5427 5413 5399 5385 5372 5359 5346 5334 5322 5313 5304 5297 5292 5288 5286 5285 5284 5285 5288 5291 5296 5301 5307 5314 5322 5330 5338 5347 5358 5373 5389 5408 5429 5452 5475 5499 5523 5548 5568 5588
5468 5454 5440 5426 5412 5398 5385 5372 5359 5346 5334 5323 5313 5304 5297 5292 5287 5285 5284 5283 5284 5286 5289 5293 5298 5304 5310 5317 5324 5331 5340 5350 5363 5378 5397 5417 5440 5465 5487 5509 5530 5552 5573
5466 5452 5438 5424 5411 5397 5384 5371 5359 5347 5335 5325 5315 5306 5298 5292 5287 5284 5282 5282 5282 5284 5287 5290 5295 5300 5306 5312 5318 5325 5333 5343 5357 5372 5388 5407 5427 5450 5473 5496 5518 5539 5559
5465 5451 5437 5424 5410 5397 5384 5372 5360 5348 5337 5327 5316 5307 5298 5292 5287 5283 5281 5280 5280 5281 5284 5287 5291 5296 5301 5307 5313 5319 5327 5336 5348 5362 5378 5398 5417 5439 5461 5483 5505 5525 5546
5463 5450 5437 5423 5410 5397 5385 5373 5361 5350 5339 5328 5317 5308 5300 5292 5287 5283 5280 5279 5279 5280 5282 5285 5288 5293 5297 5302 5308 5314 5322 5331 5342 5355 5370 5389 5408 5429 5450 5472 5493 5514 5534
5462 5449 5436 5423 5410 5398 5386 5374 5362 5351 5340 5329 5319 5309 5301 5293 5287 5283 5280 5278 5278 5278 5280 5282 5285 5289 5293 5298 5304 5310 5318 5326 5337 5350 5365 5382 5400 5420 5441 5463 5483 5502 5522
5461 5447 5435 5423 5410 5398 5386 5374 5363 5353 5342 5332 5321 5311 5302 5294 5288 5283 5280 5278 5278 5278 5279 5281 5283 5287 5291 5295 5301 5307 5314 5323 5332 5346 5360 5376 5393 5412 5433 5453 5473 5492 5511